Location: Boca do Mato
(22.9085°S, 43.2930°W)
Time: 21:45:41
(UTC+00:00)

Hubble Space Telescope - Pass Details

Date: 14 July 2020
Orbit: 536 x 540 km, 28.5° (Epoch: 10 August)

Event Time Altitude Azimuth Distance (km) Brightness Sun altitude
Exits shadow 08:42:44 15° 275° (W) 1,507 2.5 -11.8°
Maximum altitude 08:46:06 64° 195° (SSW) 598 0.8 -11.1°
Drops below altitude 10° 08:50:15 10° 113° (ESE) 1,800 4.2 -10.2°
Sets 08:52:32 0° 109° (ESE) 2,692 5.2 -9.7°
